Time,TemperatureF,DewpointF,PressureIn,WindDirection,WindDirectionDegrees,WindSpeedMPH,WindSpeedGustMPH,Humidity,HourlyPrecipIn,Conditions,Clouds,dailyrainin,SoftwareType,DateUTC
2013-05-19 00:00:00,48.5,43.6,29.35,ENE,64,0.0,0.0,83,0.00,,,0.00,Wunderground v.1.15,2013-05-18 23:00:00,
2013-05-19 00:05:00,48.5,43.6,29.35,ENE,64,0.0,0.0,83,0.00,,,0.00,Wunderground v.1.15,2013-05-18 23:05:00,
2013-05-19 00:15:00,48.2,43.3,29.35,ENE,64,0.0,0.0,83,0.00,,,0.00,Wunderground v.1.15,2013-05-18 23:15:00,
2013-05-19 00:20:00,48.0,43.4,29.35,ENE,64,0.0,0.0,84,0.00,,,0.00,Wunderground v.1.15,2013-05-18 23:20:00,
2013-05-19 00:30:00,47.7,43.1,29.35,ENE,64,0.0,0.0,84,0.00,,,0.00,Wunderground v.1.15,2013-05-18 23:30:00,
2013-05-19 00:35:00,47.6,43.0,29.35,ENE,64,0.0,0.0,84,0.00,,,0.00,Wunderground v.1.15,2013-05-18 23:35:00,
2013-05-19 00:45:00,47.3,42.7,29.35,ENE,64,0.0,0.0,84,0.00,,,0.00,Wunderground v.1.15,2013-05-18 23:45:00,
2013-05-19 00:50:00,47.1,42.8,29.35,ENE,64,0.0,0.0,85,0.00,,,0.00,Wunderground v.1.15,2013-05-18 23:50:00,
2013-05-19 01:00:00,46.8,42.5,29.35,ENE,64,0.0,0.0,85,0.00,,,0.00,Wunderground v.1.15,2013-05-19 00:00:00,
2013-05-19 01:05:00,46.5,42.2,29.35,ENE,64,0.0,0.0,85,0.00,,,0.00,Wunderground v.1.15,2013-05-19 00:05:00,
2013-05-19 01:15:00,46.2,41.9,29.35,ENE,64,0.0,0.0,85,0.00,,,0.00,Wunderground v.1.15,2013-05-19 00:15:00,
2013-05-19 01:24:00,45.8,41.5,29.35,ENE,64,0.0,0.0,85,0.00,,,0.00,Wunderground v.1.15,2013-05-19 00:24:00,
2013-05-19 01:30:00,45.7,41.8,29.36,ENE,64,0.0,0.0,86,0.00,,,0.00,Wunderground v.1.15,2013-05-19 00:30:00,
2013-05-19 01:40:00,45.4,41.5,29.36,ENE,64,0.0,0.0,86,0.00,,,0.00,Wunderground v.1.15,2013-05-19 00:40:00,
2013-05-19 01:50:00,45.1,41.2,29.37,ENE,64,0.0,0.0,86,0.00,,,0.00,Wunderground v.1.15,2013-05-19 00:50:00,
2013-05-19 01:55:00,44.9,41.3,29.37,ENE,64,0.0,0.0,87,0.00,,,0.00,Wunderground v.1.15,2013-05-19 00:55:00,
2013-05-19 02:04:00,44.6,41.0,29.37,ENE,64,0.0,0.0,87,0.00,,,0.00,Wunderground v.1.15,2013-05-19 01:04:00,
2013-05-19 02:10:00,44.5,40.9,29.37,ENE,64,0.0,0.0,87,0.00,,,0.00,Wunderground v.1.15,2013-05-19 01:10:00,
2013-05-19 02:20:00,44.1,40.5,29.36,ENE,64,0.0,0.0,87,0.00,,,0.00,Wunderground v.1.15,2013-05-19 01:20:00,
2013-05-19 02:30:00,43.8,40.2,29.37,ENE,64,0.0,0.0,87,0.00,,,0.00,Wunderground v.1.15,2013-05-19 01:30:00,
2013-05-19 02:35:00,43.8,40.2,29.37,ENE,64,0.0,0.0,87,0.00,,,0.00,Wunderground v.1.15,2013-05-19 01:35:00,
2013-05-19 02:45:00,43.5,40.2,29.37,ENE,64,0.0,0.0,88,0.00,,,0.00,Wunderground v.1.15,2013-05-19 01:45:00,
2013-05-19 02:50:00,43.3,40.0,29.37,ENE,64,0.0,0.0,88,0.00,,,0.00,Wunderground v.1.15,2013-05-19 01:50:00,
2013-05-19 02:59:00,43.5,40.2,29.37,ENE,64,0.0,0.0,88,0.00,,,0.00,Wunderground v.1.15,2013-05-19 01:59:00,
2013-05-19 03:05:00,43.5,40.5,29.37,ENE,64,0.0,0.0,89,0.00,,,0.00,Wunderground v.1.15,2013-05-19 02:05:00,
2013-05-19 03:14:00,43.5,40.5,29.37,ENE,64,0.0,0.0,89,0.00,,,0.00,Wunderground v.1.15,2013-05-19 02:14:00,
2013-05-19 03:20:00,43.3,40.3,29.37,ENE,64,0.0,0.0,89,0.00,,,0.00,Wunderground v.1.15,2013-05-19 02:20:00,
2013-05-19 03:30:00,43.1,40.1,29.37,ENE,64,0.0,0.0,89,0.00,,,0.00,Wunderground v.1.15,2013-05-19 02:30:00,
2013-05-19 03:35:00,43.1,40.1,29.37,ENE,64,0.0,0.0,89,0.00,,,0.00,Wunderground v.1.15,2013-05-19 02:35:00,
2013-05-19 03:45:00,42.6,39.6,29.37,ENE,64,0.0,0.0,89,0.00,,,0.00,Wunderground v.1.15,2013-05-19 02:45:00,
2013-05-19 03:50:00,42.6,39.9,29.37,ENE,64,0.0,0.0,90,0.00,,,0.00,Wunderground v.1.15,2013-05-19 02:50:00,
2013-05-19 03:59:00,42.5,39.8,29.37,ENE,64,0.0,0.0,90,0.00,,,0.00,Wunderground v.1.15,2013-05-19 02:59:00,
2013-05-19 04:05:00,42.3,39.6,29.37,ENE,64,0.0,0.0,90,0.00,,,0.00,Wunderground v.1.15,2013-05-19 03:05:00,
2013-05-19 04:15:00,42.3,39.6,29.38,ENE,64,0.0,0.0,90,0.00,,,0.00,Wunderground v.1.15,2013-05-19 03:15:00,
2013-05-19 04:20:00,42.2,39.5,29.38,ENE,64,0.0,0.0,90,0.00,,,0.00,Wunderground v.1.15,2013-05-19 03:20:00,
2013-05-19 04:30:00,42.2,39.5,29.38,ENE,64,0.0,0.0,90,0.00,,,0.00,Wunderground v.1.15,2013-05-19 03:30:00,
2013-05-19 04:35:00,42.2,39.5,29.38,ENE,64,0.0,0.0,90,0.00,,,0.00,Wunderground v.1.15,2013-05-19 03:35:00,
2013-05-19 04:45:00,42.2,39.8,29.39,ENE,64,0.0,0.0,91,0.00,,,0.00,Wunderground v.1.15,2013-05-19 03:45:00,
2013-05-19 04:50:00,42.3,39.9,29.39,ENE,64,0.0,0.0,91,0.00,,,0.00,Wunderground v.1.15,2013-05-19 03:50:00,
2013-05-19 04:59:00,42.3,39.9,29.39,ENE,64,0.0,0.0,91,0.00,,,0.00,Wunderground v.1.15,2013-05-19 03:59:00,
2013-05-19 05:05:00,42.5,40.1,29.39,ENE,64,0.0,0.0,91,0.00,,,0.00,Wunderground v.1.15,2013-05-19 04:05:00,
2013-05-19 05:10:00,42.3,39.9,29.39,ENE,64,0.0,0.0,91,0.00,,,0.00,Wunderground v.1.15,2013-05-19 04:10:00,
2013-05-19 05:15:00,42.3,39.9,29.39,ENE,64,0.0,0.0,91,0.00,,,0.00,Wunderground v.1.15,2013-05-19 04:15:00,
2013-05-19 05:20:00,42.3,39.9,29.39,ENE,64,0.0,0.0,91,0.00,,,0.00,Wunderground v.1.15,2013-05-19 04:20:00,
2013-05-19 05:30:00,42.6,40.2,29.39,ENE,64,0.0,0.0,91,0.00,,,0.00,Wunderground v.1.15,2013-05-19 04:30:00,
2013-05-19 05:35:00,42.6,40.2,29.39,ENE,64,0.0,0.0,91,0.00,,,0.00,Wunderground v.1.15,2013-05-19 04:35:00,
2013-05-19 05:45:00,42.9,40.7,29.40,ENE,64,0.0,0.0,92,0.00,,,0.00,Wunderground v.1.15,2013-05-19 04:45:00,
2013-05-19 05:55:00,43.3,41.1,29.40,ENE,64,0.0,0.0,92,0.00,,,0.00,Wunderground v.1.15,2013-05-19 04:55:00,
2013-05-19 06:00:00,43.5,41.3,29.40,ENE,64,0.0,0.0,92,0.00,,,0.00,Wunderground v.1.15,2013-05-19 05:00:00,
2013-05-19 06:10:00,44.1,41.9,29.40,ENE,64,0.0,0.0,92,0.00,,,0.00,Wunderground v.1.15,2013-05-19 05:10:00,
2013-05-19 06:15:00,44.5,42.3,29.40,ENE,64,0.0,0.0,92,0.00,,,0.00,Wunderground v.1.15,2013-05-19 05:15:00,
2013-05-19 06:25:00,44.9,42.7,29.40,ENE,64,0.0,0.0,92,0.00,,,0.00,Wunderground v.1.15,2013-05-19 05:25:00,
2013-05-19 06:30:00,45.2,43.3,29.40,ENE,64,0.0,0.0,93,0.00,,,0.00,Wunderground v.1.15,2013-05-19 05:30:00,
2013-05-19 06:39:00,45.7,43.8,29.40,ENE,64,0.0,0.0,93,0.00,,,0.00,Wunderground v.1.15,2013-05-19 05:39:00,
2013-05-19 06:45:00,46.1,44.2,29.41,ENE,64,0.0,0.0,93,0.00,,,0.00,Wunderground v.1.15,2013-05-19 05:45:00,
2013-05-19 06:55:00,46.8,44.9,29.41,ENE,64,0.0,0.0,93,0.00,,,0.00,Wunderground v.1.15,2013-05-19 05:55:00,
2013-05-19 07:05:00,47.4,45.5,29.41,ENE,64,0.0,0.0,93,0.00,,,0.00,Wunderground v.1.15,2013-05-19 06:05:00,
2013-05-19 07:10:00,47.7,45.8,29.41,ENE,59,0.0,0.0,93,0.00,,,0.00,Wunderground v.1.15,2013-05-19 06:10:00,
2013-05-19 07:20:00,48.5,46.6,29.42,ENE,58,0.0,1.0,93,0.00,,,0.00,Wunderground v.1.15,2013-05-19 06:20:00,
2013-05-19 07:25:00,48.6,46.4,29.42,ENE,58,0.0,1.0,92,0.00,,,0.00,Wunderground v.1.15,2013-05-19 06:25:00,
2013-05-19 07:35:00,49.2,47.0,29.42,NW,312,0.0,1.0,92,0.00,,,0.00,Wunderground v.1.15,2013-05-19 06:35:00,
2013-05-19 07:40:00,49.4,47.2,29.42,NW,312,0.0,1.0,92,0.00,,,0.00,Wunderground v.1.15,2013-05-19 06:40:00,
2013-05-19 07:50:00,49.6,46.8,29.42,NNW,343,0.0,4.0,90,0.00,,,0.00,Wunderground v.1.15,2013-05-19 06:50:00,
2013-05-19 08:00:00,49.9,47.1,29.42,North,359,0.0,4.0,90,0.00,,,0.00,Wunderground v.1.15,2013-05-19 07:00:00,
2013-05-19 08:05:00,50.2,47.1,29.42,North,357,0.0,4.0,89,0.00,,,0.00,Wunderground v.1.15,2013-05-19 07:05:00,
2013-05-19 08:14:00,50.5,46.8,29.43,North,353,0.0,4.0,87,0.00,,,0.00,Wunderground v.1.15,2013-05-19 07:14:00,
2013-05-19 08:20:00,50.7,46.7,29.43,NNW,340,0.0,2.0,86,0.00,,,0.00,Wunderground v.1.15,2013-05-19 07:20:00,
2013-05-19 08:30:00,51.1,46.4,29.43,North,356,0.0,2.0,84,0.00,,,0.00,Wunderground v.1.15,2013-05-19 07:30:00,
2013-05-19 08:40:00,51.7,46.4,29.43,North,352,0.0,2.0,82,0.00,,,0.00,Wunderground v.1.15,2013-05-19 07:40:00,
2013-05-19 08:50:00,52.3,46.3,29.43,North,352,0.0,2.0,80,0.00,,,0.00,Wunderground v.1.15,2013-05-19 07:50:00,
2013-05-19 08:55:00,52.6,46.3,29.43,North,352,0.0,2.0,79,0.00,,,0.00,Wunderground v.1.15,2013-05-19 07:55:00,
2013-05-19 09:04:00,53.2,46.2,29.44,SE,140,0.0,2.0,77,0.00,,,0.00,Wunderground v.1.15,2013-05-19 08:04:00,
2013-05-19 09:10:00,53.6,45.9,29.44,NNW,336,0.0,2.0,75,0.00,,,0.00,Wunderground v.1.15,2013-05-19 08:10:00,
2013-05-19 09:19:00,54.2,45.4,29.44,NNW,346,1.0,1.0,72,0.00,,,0.00,Wunderground v.1.15,2013-05-19 08:19:00,
2013-05-19 09:25:00,54.5,45.3,29.44,North,359,0.0,6.0,71,0.00,,,0.00,Wunderground v.1.15,2013-05-19 08:25:00,
2013-05-19 09:35:00,55.1,45.1,29.43,North,0,0.0,6.0,69,0.00,,,0.00,Wunderground v.1.15,2013-05-19 08:35:00,
2013-05-19 09:45:00,55.9,45.5,29.43,NE,35,0.0,6.0,68,0.00,,,0.00,Wunderground v.1.15,2013-05-19 08:45:00,
2013-05-19 09:50:00,56.3,45.5,29.43,NW,326,0.0,7.0,67,0.00,,,0.00,Wunderground v.1.15,2013-05-19 08:50:00,
2013-05-19 09:59:00,56.7,45.5,29.43,WSW,253,0.0,7.0,66,0.00,,,0.00,Wunderground v.1.15,2013-05-19 08:59:00,
2013-05-19 10:05:00,57.0,45.7,29.43,West,261,0.0,7.0,66,0.00,,,0.00,Wunderground v.1.15,2013-05-19 09:05:00,
2013-05-19 10:15:00,57.2,45.5,29.43,NNE,27,0.0,7.0,65,0.00,,,0.00,Wunderground v.1.15,2013-05-19 09:15:00,
2013-05-19 10:24:00,57.5,45.8,29.43,NNW,333,0.0,4.0,65,0.00,,,0.00,Wunderground v.1.15,2013-05-19 09:24:00,
2013-05-19 10:30:00,57.6,45.9,29.44,SW,232,0.0,4.0,65,0.00,,,0.00,Wunderground v.1.15,2013-05-19 09:30:00,
2013-05-19 10:39:00,58.1,46.0,29.44,NNE,14,0.0,4.0,64,0.00,,,0.00,Wunderground v.1.15,2013-05-19 09:39:00,
2013-05-19 10:45:00,58.6,46.5,29.44,North,3,0.0,4.0,64,0.00,,,0.00,Wunderground v.1.15,2013-05-19 09:45:00,
2013-05-19 10:54:00,59.3,47.1,29.44,NW,316,0.0,2.0,64,0.00,,,0.00,Wunderground v.1.15,2013-05-19 09:54:00,
2013-05-19 11:00:00,59.6,46.6,29.45,NNW,347,0.0,2.0,62,0.00,,,0.00,Wunderground v.1.15,2013-05-19 10:00:00,
2013-05-19 11:09:00,60.1,47.0,29.45,South,185,1.0,1.0,62,0.00,,,0.00,Wunderground v.1.15,2013-05-19 10:09:00,
2013-05-19 11:15:00,59.9,46.4,29.45,SSW,192,0.0,2.0,61,0.00,,,0.00,Wunderground v.1.15,2013-05-19 10:15:00,
2013-05-19 11:25:00,60.4,46.9,29.45,NW,313,0.0,4.0,61,0.00,,,0.00,Wunderground v.1.15,2013-05-19 10:25:00,
2013-05-19 11:35:00,60.4,46.4,29.45,South,188,0.0,4.0,60,0.00,,,0.00,Wunderground v.1.15,2013-05-19 10:35:00,
2013-05-19 11:45:00,60.9,46.0,29.45,North,0,0.0,4.0,58,0.00,,,0.00,Wunderground v.1.15,2013-05-19 10:45:00,
2013-05-19 11:50:00,61.2,46.3,29.45,North,357,0.0,7.0,58,0.00,,,0.00,Wunderground v.1.15,2013-05-19 10:50:00,
2013-05-19 12:00:00,62.4,47.0,29.45,North,356,0.0,7.0,57,0.00,,,0.00,Wunderground v.1.15,2013-05-19 11:00:00,
2013-05-19 12:10:00,63.5,47.0,29.45,North,350,0.0,7.0,55,0.00,,,0.00,Wunderground v.1.15,2013-05-19 11:10:00,
2013-05-19 12:15:00,63.4,46.0,29.45,NNW,330,0.0,7.0,53,0.00,,,0.00,Wunderground v.1.15,2013-05-19 11:15:00,
2013-05-19 12:25:00,62.7,46.8,29.45,NW,316,0.0,7.0,56,0.00,,,0.00,Wunderground v.1.15,2013-05-19 11:25:00,
2013-05-19 12:30:00,62.9,47.0,29.45,NW,316,0.0,7.0,56,0.00,,,0.00,Wunderground v.1.15,2013-05-19 11:30:00,
2013-05-19 12:39:00,63.4,47.4,29.45,NNW,332,0.0,7.0,56,0.00,,,0.00,Wunderground v.1.15,2013-05-19 11:39:00,
2013-05-19 12:45:00,63.4,47.4,29.45,NNW,342,0.0,7.0,56,0.00,,,0.00,Wunderground v.1.15,2013-05-19 11:45:00,
2013-05-19 12:55:00,63.1,46.7,29.45,NE,47,0.0,4.0,55,0.00,,,0.00,Wunderground v.1.15,2013-05-19 11:55:00,
2013-05-19 13:05:00,62.9,46.5,29.46,WSW,257,0.0,4.0,55,0.00,,,0.00,Wunderground v.1.15,2013-05-19 12:05:00,
2013-05-19 13:15:00,63.1,47.1,29.45,WSW,257,0.0,4.0,56,0.00,,,0.00,Wunderground v.1.15,2013-05-19 12:15:00,
2013-05-19 13:24:00,63.2,48.2,29.45,NE,40,0.0,4.0,58,0.00,,,0.00,Wunderground v.1.15,2013-05-19 12:24:00,
2013-05-19 13:30:00,63.4,46.9,29.45,North,0,0.0,4.0,55,0.00,,,0.00,Wunderground v.1.15,2013-05-19 12:30:00,
2013-05-19 13:40:00,62.9,47.4,29.45,NW,323,0.0,4.0,57,0.00,,,0.00,Wunderground v.1.15,2013-05-19 12:40:00,
2013-05-19 13:50:00,62.3,46.9,29.46,NNE,24,0.0,4.0,57,0.00,,,0.00,Wunderground v.1.15,2013-05-19 12:50:00,
2013-05-19 13:55:00,62.1,47.1,29.46,NNW,335,1.0,4.0,58,0.00,,,0.00,Wunderground v.1.15,2013-05-19 12:55:00,
2013-05-19 14:04:00,62.3,46.9,29.46,East,90,0.0,4.0,57,0.00,,,0.00,Wunderground v.1.15,2013-05-19 13:04:00,
2013-05-19 14:10:00,63.1,47.1,29.46,NE,35,0.0,4.0,56,0.00,,,0.00,Wunderground v.1.15,2013-05-19 13:10:00,
2013-05-19 14:20:00,64.5,48.0,29.46,NE,34,0.0,6.0,55,0.00,,,0.00,Wunderground v.1.15,2013-05-19 13:20:00,
2013-05-19 14:30:00,65.3,48.7,29.46,NNW,347,1.0,6.0,55,0.00,,,0.00,Wunderground v.1.15,2013-05-19 13:30:00,
2013-05-19 14:40:00,66.1,48.0,29.46,NNW,330,2.0,6.0,52,0.00,,,0.00,Wunderground v.1.15,2013-05-19 13:40:00,
2013-05-19 14:45:00,66.4,47.7,29.45,North,352,1.0,6.0,51,0.00,,,0.00,Wunderground v.1.15,2013-05-19 13:45:00,
2013-05-19 14:54:00,66.4,47.2,29.45,North,359,2.0,7.0,50,0.00,,,0.00,Wunderground v.1.15,2013-05-19 13:54:00,
2013-05-19 15:00:00,65.8,47.7,29.45,ENE,78,2.0,2.0,52,0.00,,,0.00,Wunderground v.1.15,2013-05-19 14:00:00,
2013-05-19 15:09:00,64.7,47.2,29.45,NW,326,1.0,7.0,53,0.00,,,0.00,Wunderground v.1.15,2013-05-19 14:09:00,
2013-05-19 15:15:00,65.2,48.6,29.45,North,349,1.0,7.0,55,0.00,,,0.00,Wunderground v.1.15,2013-05-19 14:15:00,
2013-05-19 15:24:00,66.0,48.4,29.45,NNW,333,1.0,7.0,53,0.00,,,0.00,Wunderground v.1.15,2013-05-19 14:24:00,
2013-05-19 15:30:00,66.3,48.7,29.44,East,97,1.0,7.0,53,0.00,,,0.00,Wunderground v.1.15,2013-05-19 14:30:00,
2013-05-19 15:39:00,66.4,48.2,29.44,North,350,2.0,7.0,52,0.00,,,0.00,Wunderground v.1.15,2013-05-19 14:39:00,
2013-05-19 15:45:00,66.1,48.5,29.44,NNW,336,2.0,7.0,53,0.00,,,0.00,Wunderground v.1.15,2013-05-19 14:45:00,
2013-05-19 15:54:00,65.8,47.7,29.44,NW,316,3.0,9.0,52,0.00,,,0.00,Wunderground v.1.15,2013-05-19 14:54:00,
2013-05-19 16:00:00,66.1,48.0,29.43,NNE,14,2.0,2.0,52,0.00,,,0.00,Wunderground v.1.15,2013-05-19 15:00:00,
2013-05-19 16:10:00,66.8,48.1,29.43,NW,309,2.0,2.0,51,0.00,,,0.00,Wunderground v.1.15,2013-05-19 15:10:00,
2013-05-19 16:20:00,67.1,48.4,29.43,NNW,347,2.0,2.0,51,0.00,,,0.00,Wunderground v.1.15,2013-05-19 15:20:00,
2013-05-19 16:29:00,66.8,48.6,29.43,North,353,2.0,2.0,52,0.00,,,0.00,Wunderground v.1.15,2013-05-19 15:29:00,
2013-05-19 16:35:00,66.6,48.4,29.43,WNW,292,1.0,6.0,52,0.00,,,0.00,Wunderground v.1.15,2013-05-19 15:35:00,
2013-05-19 16:44:00,66.3,48.1,29.43,NW,315,2.0,10.0,52,0.00,,,0.00,Wunderground v.1.15,2013-05-19 15:44:00,
2013-05-19 16:50:00,66.3,48.7,29.43,NW,326,2.0,9.0,53,0.00,,,0.00,Wunderground v.1.15,2013-05-19 15:50:00,
2013-05-19 16:59:00,66.1,48.0,29.44,NNW,337,2.0,2.0,52,0.00,,,0.00,Wunderground v.1.15,2013-05-19 15:59:00,
2013-05-19 17:05:00,66.1,48.0,29.44,NNW,333,2.0,4.0,52,0.00,,,0.00,Wunderground v.1.15,2013-05-19 16:05:00,
2013-05-19 17:15:00,66.0,48.9,29.44,NW,323,2.0,9.0,54,0.00,,,0.00,Wunderground v.1.15,2013-05-19 16:15:00,
2013-05-19 17:25:00,65.3,48.2,29.44,North,354,1.0,7.0,54,0.00,,,0.00,Wunderground v.1.15,2013-05-19 16:25:00,
2013-05-19 17:35:00,65.0,48.4,29.44,NNW,344,1.0,7.0,55,0.00,,,0.00,Wunderground v.1.15,2013-05-19 16:35:00,
2013-05-19 17:40:00,64.8,47.8,29.44,North,0,1.0,1.0,54,0.00,,,0.00,Wunderground v.1.15,2013-05-19 16:40:00,
2013-05-19 17:50:00,64.7,48.2,29.44,NNW,332,2.0,2.0,55,0.00,,,0.00,Wunderground v.1.15,2013-05-19 16:50:00,
2013-05-19 17:55:00,64.8,47.8,29.44,North,349,2.0,9.0,54,0.00,,,0.00,Wunderground v.1.15,2013-05-19 16:55:00,
2013-05-19 18:05:00,65.2,47.6,29.44,NW,326,1.0,9.0,53,0.00,,,0.00,Wunderground v.1.15,2013-05-19 17:05:00,
2013-05-19 18:10:00,65.0,47.4,29.44,NW,312,1.0,9.0,53,0.00,,,0.00,Wunderground v.1.15,2013-05-19 17:10:00,
2013-05-19 18:20:00,65.6,47.5,29.44,NNW,347,1.0,1.0,52,0.00,,,0.00,Wunderground v.1.15,2013-05-19 17:20:00,
2013-05-19 18:25:00,66.0,47.3,29.44,NNW,329,1.0,7.0,51,0.00,,,0.00,Wunderground v.1.15,2013-05-19 17:25:00,
2013-05-19 18:34:00,65.8,47.2,29.44,NNW,343,0.0,7.0,51,0.00,,,0.00,Wunderground v.1.15,2013-05-19 17:34:00,
2013-05-19 18:40:00,65.5,47.4,29.44,NE,49,0.0,7.0,52,0.00,,,0.00,Wunderground v.1.15,2013-05-19 17:40:00,
2013-05-19 18:49:00,65.3,47.2,29.44,NNW,339,2.0,6.0,52,0.00,,,0.00,Wunderground v.1.15,2013-05-19 17:49:00,
2013-05-19 18:55:00,65.3,47.7,29.44,North,0,2.0,6.0,53,0.00,,,0.00,Wunderground v.1.15,2013-05-19 17:55:00,
2013-05-19 19:05:00,65.5,47.4,29.44,NW,323,1.0,6.0,52,0.00,,,0.00,Wunderground v.1.15,2013-05-19 18:05:00,
2013-05-19 19:14:00,65.5,47.4,29.44,NNW,346,1.0,6.0,52,0.00,,,0.00,Wunderground v.1.15,2013-05-19 18:14:00,
2013-05-19 19:20:00,65.5,46.9,29.44,NNW,347,2.0,2.0,51,0.00,,,0.00,Wunderground v.1.15,2013-05-19 18:20:00,
2013-05-19 19:29:00,65.2,47.1,29.44,North,4,1.0,1.0,52,0.00,,,0.00,Wunderground v.1.15,2013-05-19 18:29:00,
2013-05-19 19:35:00,65.0,46.9,29.44,North,359,1.0,7.0,52,0.00,,,0.00,Wunderground v.1.15,2013-05-19 18:35:00,
2013-05-19 19:45:00,64.7,47.7,29.44,North,10,0.0,7.0,54,0.00,,,0.00,Wunderground v.1.15,2013-05-19 18:45:00,
2013-05-19 19:55:00,64.2,48.2,29.44,East,99,0.0,8.0,56,0.00,,,0.00,Wunderground v.1.15,2013-05-19 18:55:00,
2013-05-19 20:05:00,63.4,48.4,29.44,East,96,0.0,8.0,58,0.00,,,0.00,Wunderground v.1.15,2013-05-19 19:05:00,
2013-05-19 20:10:00,63.1,48.5,29.44,ENE,69,0.0,8.0,59,0.00,,,0.00,Wunderground v.1.15,2013-05-19 19:10:00,
2013-05-19 20:20:00,62.3,48.7,29.45,NE,44,0.0,2.0,61,0.00,,,0.00,Wunderground v.1.15,2013-05-19 19:20:00,
2013-05-19 20:29:00,61.5,48.4,29.45,North,359,0.0,2.0,62,0.00,,,0.00,Wunderground v.1.15,2013-05-19 19:29:00,
2013-05-19 20:35:00,61.0,48.3,29.45,North,359,0.0,2.0,63,0.00,,,0.00,Wunderground v.1.15,2013-05-19 19:35:00,
2013-05-19 20:45:00,60.2,48.4,29.45,North,359,0.0,2.0,65,0.00,,,0.00,Wunderground v.1.15,2013-05-19 19:45:00,
2013-05-19 20:55:00,59.6,48.2,29.45,North,359,0.0,0.0,66,0.00,,,0.00,Wunderground v.1.15,2013-05-19 19:55:00,
2013-05-19 21:00:00,59.2,48.2,29.46,North,359,0.0,0.0,67,0.00,,,0.00,Wunderground v.1.15,2013-05-19 20:00:00,
2013-05-19 21:10:00,58.4,48.3,29.46,North,359,0.0,0.0,69,0.00,,,0.00,Wunderground v.1.15,2013-05-19 20:10:00,
2013-05-19 21:15:00,58.0,48.3,29.46,North,359,0.0,0.0,70,0.00,,,0.00,Wunderground v.1.15,2013-05-19 20:15:00,
2013-05-19 21:25:00,57.0,47.7,29.46,North,359,0.0,0.0,71,0.00,,,0.00,Wunderground v.1.15,2013-05-19 20:25:00,
2013-05-19 21:30:00,56.6,47.7,29.46,North,359,0.0,0.0,72,0.00,,,0.00,Wunderground v.1.15,2013-05-19 20:30:00,
2013-05-19 21:40:00,55.9,47.7,29.46,North,359,0.0,0.0,74,0.00,,,0.00,Wunderground v.1.15,2013-05-19 20:40:00,
2013-05-19 21:45:00,55.6,47.4,29.46,North,359,0.0,0.0,74,0.00,,,0.00,Wunderground v.1.15,2013-05-19 20:45:00,
2013-05-19 21:55:00,55.0,47.6,29.46,North,359,0.0,0.0,76,0.00,,,0.00,Wunderground v.1.15,2013-05-19 20:55:00,
2013-05-19 22:00:00,54.5,47.1,29.46,North,359,0.0,0.0,76,0.00,,,0.00,Wunderground v.1.15,2013-05-19 21:00:00,
2013-05-19 22:10:00,54.1,47.4,29.46,North,359,0.0,0.0,78,0.00,,,0.00,Wunderground v.1.15,2013-05-19 21:10:00,
2013-05-19 22:15:00,53.8,47.1,29.46,North,359,0.0,0.0,78,0.00,,,0.00,Wunderground v.1.15,2013-05-19 21:15:00,
2013-05-19 22:25:00,53.5,47.1,29.46,North,359,0.0,0.0,79,0.00,,,0.00,Wunderground v.1.15,2013-05-19 21:25:00,
2013-05-19 22:30:00,53.3,47.3,29.46,North,359,0.0,0.0,80,0.00,,,0.00,Wunderground v.1.15,2013-05-19 21:30:00,
2013-05-19 22:40:00,52.9,47.2,29.46,North,359,0.0,0.0,81,0.00,,,0.00,Wunderground v.1.15,2013-05-19 21:40:00,
2013-05-19 22:45:00,52.8,47.1,29.46,North,359,0.0,0.0,81,0.00,,,0.00,Wunderground v.1.15,2013-05-19 21:45:00,
2013-05-19 22:55:00,52.5,47.2,29.46,North,359,0.0,0.0,82,0.00,,,0.00,Wunderground v.1.15,2013-05-19 21:55:00,
2013-05-19 23:00:00,52.3,47.0,29.47,North,359,0.0,0.0,82,0.00,,,0.00,Wunderground v.1.15,2013-05-19 22:00:00,
2013-05-19 23:10:00,52.0,47.0,29.47,North,359,0.0,0.0,83,0.00,,,0.00,Wunderground v.1.15,2013-05-19 22:10:00,
2013-05-19 23:15:00,52.0,47.3,29.46,North,359,0.0,0.0,84,0.00,,,0.00,Wunderground v.1.15,2013-05-19 22:15:00,
2013-05-19 23:25:00,52.0,47.3,29.46,North,359,0.0,0.0,84,0.00,,,0.00,Wunderground v.1.15,2013-05-19 22:25:00,
2013-05-19 23:34:00,52.0,47.6,29.46,North,359,0.0,0.0,85,0.00,,,0.00,Wunderground v.1.15,2013-05-19 22:34:00,
2013-05-19 23:40:00,52.2,47.8,29.46,North,359,0.0,0.0,85,0.00,,,0.00,Wunderground v.1.15,2013-05-19 22:40:00,
2013-05-19 23:49:00,52.2,47.8,29.46,North,359,0.0,0.0,85,0.00,,,0.00,Wunderground v.1.15,2013-05-19 22:49:00,
2013-05-19 23:55:00,52.2,48.1,29.46,North,359,0.0,0.0,86,0.00,,,0.00,Wunderground v.1.15,2013-05-19 22:55:00,